Wind_Speed
70 71 73 75 76 77 78 80 80 79 79 80 81 81 81 80 80 80 79 79 79 79 80 79 78 79 80 79 78 79 77 77 77 79 77 77 77 77 76 77 77 77 77
66 67 69 72 75 78 80 80 80 80 80 80 81 81 81 81 81 81 81 79 78 79 78 78 77 77 76 76 76 77 78 79 77 79 77 76 76 75 75 76 75 76 76
59 62 63 65 66 67 69 71 73 74 73 72 72 72 73 73 73 73 74 74 75 75 76 75 75 75 75 74 75 76 76 75 75 74 75 73 72 72 70 72 69 64 65
54 59 59 64 63 63 63 64 65 66 67 65 62 60 60 59 59 58 60 63 64 68 68 67 68 70 70 71 72 71 72 69 69 69 68 68 67 66 62 57 53 49 49
44 54 55 57 57 59 60 59 60 60 59 57 54 52 54 56 56 54 53 53 56 56 57 57 59 61 60 59 57 55 57 57 57 56 55 51 49 46 42 36 35 34 34
44 47 53 47 50 53 50 48 48 45 42 42 40 39 43 46 48 48 48 48 52 53 51 51 52 52 54 52 48 35 34 38 42 44 40 34 23 24 27 25 24 22 15
45 41 46 43 44 44 37 35 27 25 22 19 18 19 26 27 28 34 39 45 48 52 47 48 43 45 39 34 38 38 39 44 38 35 26 18 21 14 15 11 8 13 15
43 39 40 40 39 36 31 23 14 23 19 11 13 15 16 26 25 25 25 37 44 48 45 47 41 35 45 44 43 42 46 39 32 26 20 16 13 11 4 3 7 14 17
39 38 37 35 27 21 25 31 32 34 31 28 17 19 36 43 42 40 30 26 39 40 42 47 48 42 52 54 51 44 42 27 30 23 20 19 17 12 13 16 22 23 26
37 36 34 24 24 25 38 44 48 45 40 36 23 42 38 53 45 47 42 39 34 38 40 42 47 48 46 49 48 44 29 32 27 24 23 23 19 16 16 18 20 22 23
36 34 30 28 35 29 52 52 53 52 43 45 38 45 41 45 47 43 42 46 34 35 42 32 42 39 36 32 31 30 32 20 25 24 24 22 17 22 24 22 25 26 30
33 32 27 33 40 40 52 53 56 52 54 49 49 50 56 42 41 48 44 38 42 37 37 35 34 29 26 25 24 28 24 27 28 27 24 18 21 19 24 28 28 27 25
33 30 27 42 39 41 50 57 57 50 58 56 45 40 56 40 34 45 42 37 34 31 39 32 27 28 28 20 25 30 30 28 25 26 27 26 23 25 24 23 25 29 32
32 25 19 47 40 40 52 54 53 56 62 54 53 50 55 47 40 39 39 40 39 28 33 32 27 28 25 30 29 37 32 30 28 31 27 25 26 24 26 32 30 35 35
29 25 25 30 42 49 45 49 46 52 53 56 47 48 49 46 44 31 28 29 34 33 31 32 32 31 31 36 33 39 38 32 31 34 36 34 30 29 32 35 34 39 40
29 24 25 29 46 52 51 48 42 46 48 52 43 53 51 45 39 31 22 23 24 23 28 35 39 37 37 35 37 38 36 37 32 30 29 27 29 32 37 36 34 40 43
27 20 26 32 30 55 47 53 51 51 50 49 43 43 45 48 42 43 38 34 32 27 32 38 46 46 41 40 39 37 38 32 27 26 29 31 35 39 36 41 38 42 49
25 21 24 33 33 43 49 54 53 58 54 54 47 47 50 50 50 42 31 37 34 36 38 44 50 47 41 40 42 39 45 29 28 30 32 35 39 38 42 43 45 48 54
21 20 18 32 35 43 50 57 59 55 61 59 58 56 51 43 44 45 35 31 24 26 36 41 48 49 44 39 44 43 41 36 30 30 33 35 43 44 45 48 51 56 57
18 19 17 23 40 41 52 58 55 60 63 60 60 66 65 51 46 45 38 32 28 25 32 42 46 52 45 38 42 41 37 38 34 37 35 37 42 44 51 52 56 59 58
18 18 20 15 27 42 45 52 54 56 66 64 60 65 62 58 53 44 41 36 34 33 31 44 45 47 42 41 43 39 43 45 45 47 50 49 48 52 57 60 60 61 63
18 15 18 15 18 38 46 44 55 55 65 67 71 66 65 65 53 47 52 51 43 42 41 43 42 45 42 40 41 38 48 50 52 57 49 52 54 58 60 60 63 64 65
14 15 14 18 17 21 42 49 46 60 64 64 56 63 61 63 57 53 49 44 40 39 42 43 42 40 40 43 49 47 44 59 65 59 54 57 59 61 61 67 65 65 66
11 14 15 15 17 14 19 33 52 47 64 66 60 57 54 57 67 64 57 51 41 39 41 40 44 47 49 45 48 53 54 57 60 60 58 60 63 63 64 68 71 67 66
14 15 16 16 16 16 15 18 33 53 49 56 63 60 49 49 44 55 55 52 47 45 42 47 48 50 53 55 54 57 58 61 58 60 63 66 68 68 72 70 68 67 69
17 15 16 18 16 18 17 13 21 38 52 50 54 55 50 44 48 49 54 55 54 56 52 50 49 53 56 58 60 60 58 61 61 66 70 69 73 76 73 72 69 68 69
Wind_Direction
262 262 262 261 261 260 259 259 260 259 258 257 257 256 256 256 256 257 257 256 257 257 258 258 260 260 262 263 263 265 265 266 268 267 270 271 272 273 275 275 278 278 279
261 260 259 259 259 260 260 261 261 260 260 259 260 260 259 259 259 261 260 259 260 260 259 259 261 263 264 264 265 266 266 267 268 269 271 272 273 274 277 278 281 280 282
263 264 263 261 261 261 262 262 263 263 262 262 262 262 263 263 264 263 262 261 261 261 260 261 261 262 263 265 266 269 268 269 269 270 272 275 277 280 282 283 286 284 288
269 266 264 264 264 263 262 262 263 263 264 264 264 264 265 263 263 264 266 263 264 264 263 262 260 261 262 263 265 267 268 271 272 273 276 279 279 283 287 287 285 287 288
267 274 266 267 267 266 264 262 261 262 264 265 266 264 261 262 261 262 264 265 264 264 263 263 261 260 262 262 265 269 273 272 278 279 282 283 286 288 282 278 282 283 287
278 275 276 271 270 265 265 267 264 265 265 265 260 260 259 260 259 257 258 258 259 259 260 259 260 259 260 266 266 268 271 278 280 282 289 288 276 275 276 281 279 281 294
286 281 280 278 273 271 265 265 260 252 246 244 242 248 255 250 259 261 260 257 254 253 254 254 254 257 259 241 259 261 271 284 283 286 281 260 267 260 267 253 246 291 315
292 286 282 274 271 267 250 229 196 191 244 220 228 261 258 266 267 280 292 270 258 254 251 251 249 245 238 245 258 270 274 283 280 269 247 255 190 189 177 215 305 322 330
293 284 281 274 260 237 211 202 190 198 188 199 209 268 277 264 275 270 282 286 265 259 251 247 248 242 241 246 258 271 277 268 262 241 248 199 211 239 269 275 285 294 306
293 282 284 239 218 226 196 184 186 176 177 198 188 237 240 262 265 271 274 284 287 254 247 247 246 249 250 248 254 265 260 253 248 240 207 210 231 255 273 281 302 299 312
292 283 279 231 202 209 180 189 190 177 170 176 187 225 227 245 260 262 269 280 276 267 251 235 246 246 250 248 238 244 242 214 225 206 210 224 249 247 263 284 293 305 305
292 286 257 206 198 195 187 190 180 178 177 183 197 212 222 238 263 260 262 269 285 272 250 245 232 235 227 217 221 229 219 207 202 208 217 237 252 279 279 290 295 304 310
293 286 232 206 200 191 187 185 184 185 181 186 193 201 224 236 257 259 265 273 279 266 225 232 227 222 205 222 214 204 204 219 233 231 238 249 267 279 286 303 306 311 306
296 280 259 215 201 186 180 180 180 184 187 192 192 205 216 230 248 264 267 264 267 276 253 231 220 202 225 242 207 211 219 234 249 250 249 257 275 285 300 299 311 315 310
298 274 256 225 204 190 192 188 192 196 190 191 201 208 214 235 245 265 273 261 262 262 248 220 216 198 233 208 211 219 228 242 247 259 265 264 274 288 296 305 303 312 307
301 271 243 231 209 203 196 203 200 200 201 202 207 217 225 235 240 256 257 267 274 255 243 224 213 212 199 205 205 222 231 241 251 259 261 266 276 290 293 289 304 305 306
308 281 243 226 234 211 213 209 209 206 198 200 201 211 227 238 247 252 260 263 269 258 239 219 211 212 204 212 217 225 238 238 251 263 273 276 285 290 289 299 301 301 300
320 300 245 227 234 215 215 211 212 206 208 209 214 221 229 231 247 247 262 268 265 260 237 216 213 210 212 219 225 223 238 246 265 275 277 284 287 285 292 298 299 300 300
329 329 264 227 227 219 209 213 214 217 209 214 218 221 228 240 245 251 256 256 249 244 231 218 217 214 218 224 227 224 236 263 265 264 268 272 284 287 294 295 299 299 303
322 340 315 243 223 227 223 219 220 217 224 217 226 228 232 241 254 255 257 252 240 238 231 218 217 218 219 225 230 239 249 261 264 262 266 268 280 286 290 290 294 297 300
316 338 346 272 243 225 226 230 225 222 223 226 227 230 233 241 250 254 260 249 254 237 229 223 214 220 227 232 231 236 250 260 261 262 261 272 278 289 290 289 293 295 297
305 323 349 344 276 236 228 227 223 225 224 227 230 232 235 239 246 248 254 255 252 252 231 225 225 225 229 230 233 240 252 262 262 264 266 274 278 286 288 288 290 293 296
303 316 329 345 341 254 239 233 227 220 219 225 232 237 242 246 243 244 251 253 258 254 248 226 233 233 236 234 243 246 249 252 258 267 275 274 279 286 288 289 288 294 294
317 298 309 327 335 337 251 248 235 231 222 224 230 232 241 245 243 242 247 252 251 250 250 248 246 243 239 244 248 251 255 257 267 272 278 277 280 283 286 286 291 293 294
320 315 299 306 319 336 322 262 239 230 232 232 237 237 241 245 245 241 241 247 242 247 245 245 251 251 250 247 254 260 264 268 268 272 274 276 280 282 283 286 289 291 295
296 316 314 296 307 324 336 307 243 232 228 233 235 236 240 240 248 245 244 244 245 246 252 248 251 248 250 253 256 263 267 269 269 271 271 273 276 278 281 288 289 292 294
Height
10780 10780 10781 10782 10783 10785 10787 10789 10791 10794 10798 10801 10801 10803 10806 10808 10811 10816 10820 10824 10825 10825 10826 10829 10832 10832 10833 10835 10837 10836 10838 10839 10839 10838 10840 10840 10839 10839 10839 10839 10839 10838 10837
10765 10766 10766 10768 10769 10768 10770 10773 10777 10779 10781 10784 10787 10790 10794 10796 10799 10803 10805 10809 10812 10813 10816 10818 10820 10822 10822 10823 10825 10826 10828 10827 10829 10828 10829 10828 10829 10831 10829 10829 10829 10827 10826
10750 10751 10753 10754 10755 10757 10758 10759 10760 10762 10765 10769 10773 10777 10779 10782 10786 10789 10791 10795 10799 10799 10802 10807 10809 10811 10812 10812 10813 10815 10816 10818 10819 10819 10819 10820 10820 10820 10821 10819 10819 10815 10813
10741 10738 10742 10738 10741 10743 10746 10747 10747 10748 10751 10754 10759 10764 10767 10768 10772 10775 10778 10782 10785 10785 10790 10794 10798 10800 10802 10802 10802 10804 10806 10806 10809 10810 10811 10810 10812 10812 10811 10809 10809 10807 10805
10739 10724 10728 10727 10729 10730 10731 10733 10735 10737 10741 10743 10748 10752 10754 10756 10760 10763 10766 10769 10770 10772 10778 10783 10787 10789 10791 10792 10795 10798 10798 10798 10802 10803 10804 10804 10803 10803 10801 10800 10799 10798 10795
10720 10719 10709 10717 10712 10715 10721 10724 10727 10730 10734 10736 10738 10742 10744 10746 10748 10751 10756 10758 10759 10762 10767 10772 10777 10781 10782 10786 10790 10791 10791 10794 10796 10798 10797 10797 10795 10795 10794 10795 10793 10792 10790
10706 10708 10701 10701 10701 10704 10712 10710 10717 10722 10726 10729 10731 10733 10737 10738 10741 10744 10747 10749 10750 10753 10759 10763 10769 10773 10775 10780 10783 10785 10786 10787 10791 10791 10791 10791 10789 10788 10790 10790 10788 10786 10785
10698 10696 10691 10691 10692 10694 10702 10710 10714 10718 10722 10725 10728 10728 10732 10732 10735 10738 10742 10743 10744 10747 10752 10755 10763 10768 10770 10773 10777 10778 10780 10783 10784 10784 10786 10787 10785 10784 10785 10784 10782 10782 10781
10688 10686 10683 10681 10682 10686 10692 10701 10704 10706 10713 10716 10721 10729 10726 10724 10727 10730 10734 10737 10738 10740 10744 10747 10752 10759 10762 10767 10771 10771 10776 10775 10776 10779 10781 10781 10780 10780 10778 10778 10778 10777 10775
10680 10677 10677 10674 10676 10680 10683 10687 10687 10691 10694 10704 10712 10722 10714 10714 10718 10720 10725 10729 10732 10733 10735 10738 10744 10750 10756 10761 10766 10767 10769 10768 10771 10773 10775 10775 10774 10774 10774 10774 10773 10772 10770
10672 10669 10668 10668 10670 10672 10676 10677 10681 10681 10684 10692 10702 10706 10704 10708 10709 10713 10717 10721 10728 10729 10729 10734 10738 10743 10748 10754 10759 10762 10761 10765 10766 10767 10769 10770 10770 10769 10769 10769 10768 10767 10765
10663 10662 10662 10664 10664 10666 10669 10672 10677 10677 10680 10688 10695 10701 10701 10704 10704 10705 10709 10717 10719 10721 10722 10726 10732 10737 10742 10749 10753 10754 10759 10761 10762 10762 10763 10764 10764 10764 10764 10764 10763 10762 10760
10656 10655 10657 10659 10662 10664 10664 10667 10671 10677 10679 10685 10690 10696 10701 10702 10698 10699 10704 10706 10712 10714 10720 10722 10726 10731 10737 10743 10749 10748 10755 10757 10758 10757 10757 10758 10759 10759 10759 10759 10758 10757 10754
10649 10649 10651 10655 10662 10662 10662 10666 10670 10672 10677 10680 10686 10688 10689 10694 10696 10695 10698 10703 10708 10708 10710 10717 10723 10726 10733 10738 10745 10742 10749 10751 10752 10752 10753 10753 10753 10753 10754 10753 10752 10750 10748
10646 10644 10644 10649 10657 10660 10662 10665 10669 10670 10674 10677 10680 10685 10687 10689 10691 10691 10694 10700 10705 10707 10707 10713 10718 10721 10727 10733 10738 10737 10744 10746 10746 10747 10747 10748 10747 10747 10747 10746 10745 10742 10740
10641 10639 10641 10645 10652 10655 10658 10661 10665 10667 10670 10674 10677 10682 10685 10684 10687 10689 10690 10694 10696 10698 10703 10709 10712 10717 10719 10727 10730 10731 10737 10739 10740 10742 10741 10741 10740 10741 10741 10739 10737 10735 10732
10635 10633 10636 10639 10643 10649 10654 10657 10660 10663 10664 10670 10673 10676 10678 10679 10682 10687 10687 10692 10695 10694 10699 10703 10706 10710 10713 10720 10727 10726 10729 10733 10734 10734 10734 10733 10734 10733 10732 10730 10729 10727 10724
10631 10628 10629 10634 10638 10642 10648 10652 10655 10661 10663 10667 10671 10672 10671 10676 10680 10684 10683 10684 10688 10691 10692 10694 10699 10704 10707 10713 10719 10722 10720 10725 10726 10725 10725 10724 10724 10724 10722 10721 10719 10716 10714
10629 10623 10623 10628 10633 10637 10643 10647 10651 10654 10659 10661 10663 10663 10666 10672 10675 10678 10681 10680 10681 10683 10684 10687 10693 10698 10701 10705 10711 10715 10715 10715 10719 10717 10717 10717 10716 10714 10713 10711 10710 10708 10704
10628 10623 10619 10619 10626 10629 10634 10639 10644 10648 10650 10654 10655 10657 10660 10666 10671 10674 10676 10676 10678 10680 10679 10681 10687 10692 10696 10697 10704 10709 10709 10707 10708 10710 10710 10709 10708 10706 10704 10702 10700 10698 10694
10625 10621 10616 10613 10614 10619 10623 10629 10635 10639 10644 10646 10649 10652 10655 10661 10664 10668 10668 10672 10673 10675 10676 10677 10679 10685 10690 10693 10698 10699 10701 10702 10699 10699 10700 10701 10699 10698 10695 10693 10690 10687 10683
10622 10619 10615 10612 10610 10610 10615 10619 10623 10629 10634 10639 10642 10646 10651 10655 10657 10659 10660 10666 10667 10668 10671 10673 10676 10681 10683 10686 10688 10691 10692 10690 10689 10689 10690 10689 10689 10688 10685 10683 10680 10677 10673
10619 10616 10613 10610 10608 10605 10605 10608 10614 10618 10624 10630 10633 10637 10641 10645 10649 10652 10653 10658 10658 10660 10662 10667 10672 10675 10676 10679 10679 10679 10680 10679 10677 10680 10682 10681 10680 10676 10674 10670 10670 10667 10662
10615 10614 10611 10609 10606 10603 10601 10601 10605 10609 10615 10619 10623 10628 10633 10636 10641 10644 10646 10648 10650 10652 10655 10659 10664 10666 10667 10668 10670 10669 10667 10667 10670 10669 10671 10671 10668 10666 10667 10663 10654 10653 10652
10610 10609 10608 10606 10604 10601 10598 10595 10596 10602 10607 10611 10615 10620 10624 10627 10630 10633 10637 10640 10642 10645 10647 10651 10653 10656 10657 10658 10659 10658 10658 10658 10659 10659 10661 10659 10656 10656 10654 10650 10646 10639 10635
10605 10605 10603 10603 10602 10598 10594 10591 10592 10595 10600 10603 10607 10610 10614 10618 10621 10624 10627 10630 10632 10635 10638 10641 10644 10645 10646 10646 10648 10648 10647 10647 10648 10648 10648 10648 10644 10641 10641 10636 10629 10628 10625